Weather History for Tunica, MS

Change the Weather History Date:

Thursday, February 13, 2014

  Actual Average (KMEM) Record (KMEM)
Temperature  
Mean Temperature 37 °F 45 °F  
Max Temperature 50 °F 54 °F 81 °F (1962)
Min Temperature 24 °F 36 °F -6 °F (1899)
Degree Days  
Heating Degree Days 28 20  
Month to date heating degree days 279  
Since 1 July heating degree days 2181  
Cooling Degree Days 0 0  
Month to date cooling degree days 0  
Year to date cooling degree days 1  
Moisture  
Dew Point 29 °F    
Average Humidity 74    
Maximum Humidity 93    
Minimum Humidity 43    
Precipitation  
Precipitation 0.00 in 0.15 in 2.04 in (1950)
Month to date precipitation 1.98  
Year to date precipitation 5.96  
Snow  
Snow 0.00 in 0.00 in 2.20 in (1905)
Month to date snowfall 0.7  
Since 1 July snowfall 2.8  
Snow Depth -    
Sea Level Pressure  
Sea Level Pressure 29.98 in    
Wind  
Wind Speed 5 mph (SW)    
Max Wind Speed 14 mph    
Max Gust Speed 17 mph    
Visibility 10 miles    
Events      
T = Trace of Precipitation, MM = Missing Value Source: NWS Daily Summary

Daily Weather History Graph

Daily Weather History Graph

Search for Another Location

Airport:

Trip Planner

Search our weather history database for the weather conditions in past years. The results will help you decide how hot, cold, wet, or windy it might be!

Date:

Astronomy

Feb. 13, 2014 Rise Set
Actual Time 6:48 AM CST 5:42 PM CST
Civil Twilight 6:23 AM CST 6:08 PM CST
Nautical Twilight 5:53 AM CST 6:38 PM CST
Astronomical Twilight 5:24 AM CST 7:07 PM CST
Moon 4:51 PM CST (2/13) 5:41 AM CST (2/13)
Length of Visible Light 11h 45m
Length of Day
10h 53m
Waxing Gibbous, 99% of the Moon is Illuminated
Feb 13
Waxing Gibbous
Feb 14
Full
Feb 22
Last Quarter
Mar 1
New
Mar 8
First Quarter

Hourly Weather History & Observations

Time (CST) Temp. Windchill Dew Point Humidity Pressure Visibility Wind Dir Wind Speed Gust Speed Precip Events Conditions
12:15 AM 30.2 °F 25.4 °F 26.6 °F 86% 30.02 in 10.0 mi NNW 4.6 mph - N/A   Clear
12:35 AM 30.2 °F - 26.6 °F 86% 30.02 in 10.0 mi Calm Calm - N/A   Clear
12:55 AM 30.2 °F - 26.6 °F 86% 30.02 in 10.0 mi Calm Calm - N/A   Clear
1:15 AM 28.4 °F 24.6 °F 26.6 °F 93% 30.02 in 10.0 mi WNW 3.5 mph - N/A   Mostly Cloudy
1:35 AM 30.2 °F 26.7 °F 28.4 °F 93% 30.01 in 10.0 mi NW 3.5 mph - N/A   Overcast
1:55 AM 30.2 °F 26.7 °F 26.6 °F 86% 30.02 in 10.0 mi West 3.5 mph - N/A   Scattered Clouds
2:15 AM 30.2 °F 26.7 °F 26.6 °F 86% 30.02 in 10.0 mi WNW 3.5 mph - N/A   Clear
2:35 AM 28.4 °F 22.2 °F 26.6 °F 93% 30.04 in 10.0 mi WNW 5.8 mph - N/A   Mostly Cloudy
2:55 AM 30.2 °F 26.7 °F 26.6 °F 86% 30.03 in 10.0 mi North 3.5 mph - N/A   Mostly Cloudy
3:15 AM 30.2 °F 26.7 °F 26.6 °F 86% 30.02 in 10.0 mi North 3.5 mph - N/A   Scattered Clouds
3:35 AM 30.2 °F 25.4 °F 26.6 °F 86% 30.01 in 10.0 mi NNE 4.6 mph - N/A   Clear
3:55 AM 30.2 °F 26.7 °F 26.6 °F 86% 30.01 in 10.0 mi NNE 3.5 mph - N/A   Clear
4:15 AM 30.2 °F - 26.6 °F 86% 30.01 in 10.0 mi Calm Calm - N/A   Clear
4:35 AM 28.4 °F - 26.6 °F 93% 30.02 in 10.0 mi Calm Calm - N/A   Clear
4:55 AM 26.6 °F - 24.8 °F 93% 30.02 in 10.0 mi Calm Calm - N/A   Clear
5:15 AM 28.4 °F - 26.6 °F 93% 30.02 in 7.0 mi Calm Calm - N/A   Clear
5:35 AM 26.6 °F 21.2 °F 24.8 °F 93% 30.03 in 10.0 mi WSW 4.6 mph - N/A   Clear
5:55 AM 26.6 °F - 23.0 °F 86% 30.02 in 10.0 mi Calm Calm - N/A   Clear
6:15 AM 26.6 °F - 24.8 °F 93% 30.02 in 7.0 mi Calm Calm - N/A   Clear
6:35 AM 24.8 °F 20.5 °F 23.0 °F 93% 30.02 in 7.0 mi SW 3.5 mph - N/A   Clear
6:55 AM 26.6 °F 16.8 °F 23.0 °F 86% 30.05 in 7.0 mi West 10.4 mph - N/A   Clear
7:15 AM 28.4 °F 23.3 °F 26.6 °F 93% 30.06 in 10.0 mi West 4.6 mph - N/A   Clear
7:35 AM 28.4 °F - 26.6 °F 93% 30.04 in 7.0 mi Calm Calm - N/A   Clear
7:55 AM 30.2 °F - 26.6 °F 86% 30.03 in 10.0 mi Calm Calm - N/A   Clear
8:15 AM 32.0 °F 28.7 °F 28.4 °F 87% 30.05 in 10.0 mi WSW 3.5 mph - N/A   Clear
8:35 AM 32.0 °F - 28.4 °F 87% 30.05 in 10.0 mi Calm Calm - N/A   Clear
8:55 AM 32.0 °F 28.7 °F 26.6 °F 80% 30.06 in 10.0 mi WSW 3.5 mph - N/A   Clear
9:15 AM 33.8 °F 30.8 °F 26.6 °F 75% 30.06 in 10.0 mi West 3.5 mph - N/A   Clear
9:35 AM 35.6 °F 32.8 °F 26.6 °F 70% 30.06 in 10.0 mi SW 3.5 mph - N/A   Clear
9:55 AM 35.6 °F 32.8 °F 26.6 °F 70% 30.04 in 10.0 mi SSW 3.5 mph - N/A   Clear
10:15 AM 37.4 °F 34.9 °F 24.8 °F 60% 30.04 in 10.0 mi SSE 3.5 mph - N/A   Clear
10:35 AM 37.4 °F 33.8 °F 26.6 °F 65% 30.04 in 10.0 mi South 4.6 mph - N/A   Clear
10:55 AM 41.0 °F 35.8 °F 24.8 °F 53% 30.03 in 10.0 mi SSW 8.1 mph - N/A   Clear
11:15 AM 41.0 °F 35.2 °F 26.6 °F 57% 30.03 in 10.0 mi SSW 9.2 mph - N/A   Clear
11:35 AM 41.0 °F 35.2 °F 28.4 °F 61% 30.02 in 10.0 mi SSW 9.2 mph - N/A   Clear
11:55 AM 42.8 °F 38.6 °F 30.2 °F 61% 30.02 in 10.0 mi SSW 6.9 mph - N/A   Clear
12:15 PM 44.6 °F 40.7 °F 28.4 °F 53% 30.01 in 10.0 mi SSW 6.9 mph - N/A   Clear
12:35 PM 46.4 °F 42.4 °F 28.4 °F 50% 30.00 in 10.0 mi SSW 8.1 mph - N/A   Clear
12:55 PM 46.4 °F 40.7 °F 28.4 °F 50% 29.99 in 10.0 mi SW 12.7 mph - N/A   Clear
1:35 PM 48.2 °F - 28.4 °F 46% 29.97 in 10.0 mi WSW 11.5 mph 16.1 mph N/A   Clear
1:55 PM 50.0 °F - 28.4 °F 43% 29.96 in 10.0 mi SW 10.4 mph - N/A   Clear
2:15 PM 50.0 °F - 28.4 °F 43% 29.95 in 10.0 mi SSW 9.2 mph - N/A   Clear
2:35 PM 50.0 °F - 30.2 °F 47% 29.94 in 10.0 mi SW 12.7 mph - N/A   Clear
2:55 PM 50.0 °F - 30.2 °F 47% 29.93 in 10.0 mi SSW 11.5 mph - N/A   Clear
3:15 PM 50.0 °F - 30.2 °F 47% 29.92 in 10.0 mi SSW 13.8 mph - N/A   Clear
3:35 PM 50.0 °F - 30.2 °F 47% 29.92 in 10.0 mi SSW 11.5 mph - N/A   Clear
3:55 PM 50.0 °F - 30.2 °F 47% 29.92 in 10.0 mi SW 11.5 mph - N/A   Clear
4:15 PM 50.0 °F - 30.2 °F 47% 29.91 in 10.0 mi SW 11.5 mph 17.3 mph N/A   Clear
4:35 PM 48.2 °F - 32.0 °F 54% 29.91 in 10.0 mi SSW 12.7 mph - N/A   Clear
4:55 PM 46.4 °F 41.9 °F 32.0 °F 57% 29.91 in 10.0 mi SW 9.2 mph - N/A   Clear
5:15 PM 46.4 °F 42.4 °F 32.0 °F 57% 29.91 in 10.0 mi SSW 8.1 mph - N/A   Clear
5:35 PM 44.6 °F 40.2 °F 32.0 °F 61% 29.91 in 10.0 mi SW 8.1 mph - N/A   Clear
5:55 PM 41.0 °F 35.8 °F 32.0 °F 70% 29.92 in 10.0 mi South 8.1 mph - N/A   Clear
6:15 PM 42.8 °F 37.5 °F 33.8 °F 70% 29.91 in 10.0 mi South 9.2 mph - N/A   Clear
6:35 PM 39.2 °F 34.2 °F 32.0 °F 75% 29.92 in 10.0 mi South 6.9 mph - N/A   Clear
6:55 PM 37.4 °F 31.4 °F 32.0 °F 81% 29.92 in 10.0 mi South 8.1 mph - N/A   Clear
7:15 PM 37.4 °F 31.4 °F 32.0 °F 81% 29.91 in 10.0 mi South 8.1 mph - N/A   Clear
7:35 PM 39.2 °F 31.6 °F 32.0 °F 75% 29.91 in 10.0 mi South 12.7 mph - N/A   Clear
7:55 PM 41.0 °F 34.7 °F 32.0 °F 70% 29.91 in 10.0 mi South 10.4 mph - N/A   Clear
8:15 PM 39.2 °F 33.0 °F 32.0 °F 75% 29.91 in 10.0 mi South 9.2 mph - N/A   Clear
8:35 PM 37.4 °F 30.3 °F 32.0 °F 81% 29.91 in 10.0 mi South 10.4 mph - N/A   Clear
8:55 PM 39.2 °F 32.5 °F 32.0 °F 75% 29.92 in 10.0 mi SSW 10.4 mph - N/A   Clear
9:15 PM 37.4 °F 30.8 °F 32.0 °F 81% 29.91 in 10.0 mi South 9.2 mph - N/A   Clear
9:35 PM 37.4 °F 32.1 °F 32.0 °F 81% 29.91 in 10.0 mi South 6.9 mph - N/A   Clear
9:55 PM 37.4 °F 30.3 °F 32.0 °F 81% 29.91 in 10.0 mi South 10.4 mph - N/A   Clear
10:15 PM 37.4 °F 30.3 °F 32.0 °F 81% 29.90 in 10.0 mi South 10.4 mph - N/A   Clear
10:35 PM 37.4 °F 31.4 °F 32.0 °F 81% 29.91 in 10.0 mi South 8.1 mph - N/A   Clear
10:55 PM 37.4 °F 31.4 °F 32.0 °F 81% 29.91 in 10.0 mi SSW 8.1 mph - N/A   Clear
11:15 PM 37.4 °F 31.4 °F 32.0 °F 81% 29.92 in 10.0 mi SSW 8.1 mph - N/A   Clear
11:35 PM 35.6 °F 29.2 °F 32.0 °F 87% 29.91 in 10.0 mi SSW 8.1 mph - N/A   Clear
11:55 PM 37.4 °F 30.8 °F 32.0 °F 81% 29.91 in 10.0 mi South 9.2 mph - N/A   Clear